Terminal Aerodrome Forecast
Issued by NWS

Home | Current Version | Previous Version | Text Only | Print | Product List | Glossary On
Versions: 1 2 3 4 5 6 7 8 9 10 11 12 13
000
FTUS45 KMSO 240536
TAFSMN
TAF
KSMN 240536Z 2406/2506 VRB05KT P6SM BKN150
     FM242100 VRB06KT P6SM VCSH BKN100
     FM242300 29012KT P6SM VCSH BKN100
      AMD LTD TO CLD VIS AND WIND=

USA.gov is the U.S. government's official web portal to all federal, state and local government web resources and services.